Location: Unspecified
(0.0000°N, 0.0000°E)
Time: 02:50:36
(UTC+00:00)

Hubble Space Telescope - Pass Details

Date: 23 September 2022
Orbit: 531 x 535 km, 28.5° (Epoch: 25 September)

Event Time Altitude Azimuth Distance (km) Brightness Sun altitude
Exits shadow 05:15:06 11° 255° (WSW) 1,686 2.7 -9.3°
Maximum altitude 05:17:53 21° 209° (SSW) 1,243 2.4 -8.6°
Drops below altitude 10° 05:21:00 10° 159° (SSE) 1,777 3.7 -7.9°
Sets 05:23:42 0° 143° (SE) 2,667 4.9 -7.2°
